Terminal Aerodrome Forecast
Issued by NWS

Home | Current Version | Previous Version | Text Only | Print | Product List | Glossary On
Versions: 1 2 3 4 5 6 7 8 9 10 11 12 13 14 15 16 17
000
FTUS42 KTBW 170500
TAFPIE
TAF
KPIE 170538Z 1706/1806 23005KT P6SM VCSH BKN060 BKN250
     FM171200 27006KT P6SM VCTS SCT030CB BKN060 BKN250
     FM171500 30007KT P6SM VCTS SCT020CB BKN030
     FM180000 VRB06KT P6SM VCSH SCT035 BKN080=

USA.gov is the U.S. government's official web portal to all federal, state and local government web resources and services.